Regional Weather Roundup
Issued by NWS

Home | Current Version | Previous Version | Graphics & Text | Print | Product List | Glossary On
Versions: 1 2 3 4 5 6 7 8 9 10 11 12 13 14 15 16 17 18 19 20 21 22 23 24 25 26 27
000
ASUS45 KTFX 171610
RWRMT
MONTANA REGIONAL WEATHER ROUNDUP
NATIONAL WEATHER SERVICE GREAT FALLS MT
1000 AM MDT THU AUG 17 2017

NOTE: "FAIR" INDICATES FEW OR NO CLOUDS BELOW 12000 FEET WITH NO
SIGNIFICANT WEATHER AND/OR OBSTRUCTIONS TO VISIBILITY.

MTZ001>007-043-171700-
WEST OF THE DIVIDE

CITY           SKY/WX    TMP DP  RH WIND       PRES   REMARKS
KALISPELL      MOSUNNY   66  47  50 CALM      30.06R
MISSOULA       SUNNY     63  42  46 CALM      30.11S
BUTTE          CLOUDY    60  36  40 CALM      30.20R
MULLAN PASS    SUNNY     57  39  51 NW3       30.21R
DEER LODGE       N/A     63  37  39 SE3       30.17S
EUREKA           N/A     68  43  40 MISG      30.05S
HAMILTON         N/A     68  43  40 CALM      30.12S
LIBBY            N/A     64  41  42 CALM      30.04S
PLAINS           N/A     65  42  43 MISG      30.08
RONAN            N/A     72  48  42 S3        30.11R
$$

MTZ008-052>055-171700-
SOUTHWEST MONTANA

CITY           SKY/WX    TMP DP  RH WIND       PRES   REMARKS
BOZEMAN        SUNNY     69  42  37 CALM      30.12S
DILLON         SUNNY     65  44  46 SW5       30.15S
W YELLOWSTONE  CLOUDY    59  39  47 CALM      30.24S
ENNIS          SUNNY     64  41  42 CALM      30.21R
THREE FORKS      N/A     67  42  40 CALM      30.09S
TWIN BRIDGES     N/A     64  38  38 CALM      30.12R
$$

MTZ009-010-012-014-046-048-049-054-171700-
EAST SLOPES AND CENTRAL MONTANA

CITY           SKY/WX    TMP DP  RH WIND       PRES   REMARKS
CUT BANK       SUNNY     66  42  41 N17       30.05R
GREAT FALLS    SUNNY     74  35  24 W12       30.03R
MALMSTROM AFB  SUNNY     73  37  27 W14       30.02S
HELENA         SUNNY     73  38  27 W14       30.08F
AUGUSTA          N/A     74  36  25 NW9       30.06
BOWMANS CRNR     N/A     71  36  27 W5        30.05S
CHOTEAU          N/A     77  37  24 N14       30.05S
CONRAD           N/A     71  43  36 NW15      30.05R
FAIRFIELD        N/A     75  37  24 NW12      30.03S
POWER            N/A     73  37  26 NW12      30.02S
RAYNESFORD       N/A     72  35  25 W14G21    30.05
ULM              N/A     74  37  25 W10       30.03S
$$

MTZ011-013-016-021-045-047-050-051-171700-
NORTH CENTRAL MONTANA

CITY           SKY/WX    TMP DP  RH WIND       PRES   REMARKS
HAVRE          CLOUDY    70  37  29 W10       29.96R
LEWISTOWN      SUNNY     71  33  24 W9        30.05R
N BAR RANCH      N/A     75  32  20 NW15G23   30.05S
CHINOOK          N/A     70  39  32 W7        29.94S
DENTON           N/A     74  35  23 W17G23    29.98R
GEYSER           N/A     74  34  23 W23       30.03S
GRASS RANGE      N/A     76  33  21 W20       29.97S
JUDITH GAP       N/A     73  35  24 N18       30.05
WINIFRED         N/A     71  33  24 W12G17    30.00S
$$

MTZ017>020-022>027-061-062-171700-
NORTHEAST MONTANA

CITY           SKY/WX    TMP DP  RH WIND       PRES   REMARKS
GLASGOW        MOSUNNY   72  39  30 NW9       29.88S
JORDAN           N/A     81  31  16 W13       29.90S
SIDNEY         MOSUNNY   71  58  63 SE5       29.86S
WOLF POINT     CLOUDY    69  51  52 SW5       29.87R
MALTA          PTSUNNY   63  43  48 CALM      29.93R
PLENTYWOOD       N/A     68  54  60 CALM      29.85F
POPLAR           N/A     70  52  52 CALM      29.87S
$$

MTZ028>42-056>058-171700-
SOUTHCENTRAL AND SOUTHEAST MONTANA

CITY           SKY/WX    TMP DP  RH WIND       PRES   REMARKS
BAKER          SUNNY     75  42  30 NW6       29.92S
BILLINGS       CLOUDY    68  40  35 SW12      30.01S
LIVINGSTON     PTSUNNY   67  43  41 W9        30.10F
MILES CITY     CLOUDY    76  39  26 CALM      29.91S
BIG TIMBER     SUNNY     68  37  32 SW14      30.10S
EKALAKA          N/A     77  41  27 NW5       29.94R
FORSYTH          N/A     66  39  37 W7        29.93S
HARLOWTON        N/A     73  35  25 MISG      30.05R
LAUREL           N/A     67  42  40 S3        30.00F
$$

REGIONAL REPORTS...DAKOTAS

CITY           SKY/WX    TMP DP  RH WIND       PRES   REMARKS
WILLISTON      MOSUNNY   72  54  53 CALM      29.85R
MINOT          SUNNY     77  54  44 SE8       29.87R
DICKINSON      SUNNY     73  53  49 S12       29.87S
BEACH            N/A     77  43  29 NW8       29.92S
CROSBY           N/A     72  55  56 E8        29.86F
TIOGA            N/A     70  55  60 S6        29.87S
WATFORD CITY     N/A     75  50  41 W7        29.85R
BISMARCK       SUNNY     75  58  55 S5        29.91S
GRAND FORKS    MOSUNNY   69  63  81 N8        29.83S
FARGO          MOSUNNY   68  62  81 N12       29.83S
BUFFALO SD       N/A     76  48  37 W6        29.86S
RAPID CITY     CLOUDY    72  53  51 SE6       29.94F
$$

REGIONAL REPORTS...WYOMING/IDAHO/WASHINGTON

CITY           SKY/WX    TMP DP  RH WIND       PRES   REMARKS
GILLETTE       SUNNY     81  38  21 NW9       30.02R
SHERIDAN       CLOUDY    79  41  25 NW15      30.02R
BUFFALO WY       N/A    N/A N/A N/A MISG      30.06F
CODY           MOSUNNY   70  38  31 CALM      30.11S
YELLOWSTONE LA   N/A     58  38  47 VRB5      30.31R
IDAHO FALLS    SUNNY     69  38  32 S17       30.15S
SALMON         SUNNY     62  43  49 CALM      30.16F
BOISE          SUNNY     70  45  40 W6        30.11R
SPOKANE        MOSUNNY   65  48  54 S9        30.08R
$$

REGIONAL REPORTS...ALBERTA

CITY           SKY/WX    TMP DP  RH WIND       PRES   REMARKS
EDMONTON       SUNNY     64  48  55 W14G21    29.95S
CALGARY        SUNNY     63  46  55 S5        30.05S SMOKE
LETHBRIDGE     MOSUNNY   63  46  55 NW9       30.04R
MEDICINE HAT   MOSUNNY   70  48  46 SE5       29.95R
$$

REGIONAL REPORTS...SASKATCHEWAN

CITY           SKY/WX    TMP DP  RH WIND       PRES   REMARKS
SWIFT CURRENT  PTSUNNY   64  45  48 NW5       29.97R
REGINA         CLOUDY    68  52  56 N12G20    29.90R
SASKATOON      MOSUNNY   68  54  60 W8        29.90R
$$




USA.gov is the U.S. government's official web portal to all federal, state and local government web resources and services.